Overview Statistics Trail Chart Weather Telemetry Raw packets
 

This is the latest recevied weather packets stored in our database for station/object KQ4PPF. If no packets are shown the sender has not sent any weather packets the latest 10 day(s).

<< 11 12 13 14 15 16 17 >>
Time Temp. Humidity Pressure Rain* Wind** Luminosity Snow
1788533474 31.67° C 68% 1017.3 hPa 0 mm - 581 W/m² -
1788533170 32.78° C 65% 1017.2 hPa 0 mm - 554 W/m² -
1788532866 32.22° C 70% 1017.2 hPa 0 mm - 511 W/m² -
1788532561 31.67° C 68% 1017.2 hPa 0 mm - 453 W/m² -
1788532257 31.67° C 69% 1017.2 hPa 0 mm - 513 W/m² -
1788531954 31.67° C 70% 1017.3 hPa 0 mm - 529 W/m² -
1788531648 30.56° C 69% 1017.2 hPa 0 mm - 516 W/m² -
1788531344 31.11° C 70% 1017 hPa 0 mm - 515 W/m² -
1788531039 31.11° C 71% 1017.2 hPa 0 mm - 482 W/m² -
1788530733 31.11° C 72% 1017.1 hPa 0 mm - 301 W/m² -
1788530428 30.56° C 73% 1016.9 hPa 0 mm - 491 W/m² -
1788530127 30.56° C 71% 1016.9 hPa 0 mm - 169 W/m² -
1788529824 30.56° C 75% 1017 hPa 0 mm - 90 W/m² -
1788529519 31.11° C 71% 1017 hPa 0 mm - 344 W/m² -
1788529214 30.56° C 74% 1016.8 hPa 0 mm - 413 W/m² -
1788528907 31.11° C 73% 1016.9 hPa 0 mm - 377 W/m² -
1788528603 30.56° C 74% 1016.8 hPa 0 mm - 334 W/m² -
1788528298 30° C 77% 1016.9 hPa 0 mm - 281 W/m² -
1788527997 28.89° C 79% 1017 hPa 0 mm - 286 W/m² -
1788527693 28.33° C 82% 1017.1 hPa 0 mm - 257 W/m² -
1788527389 27.78° C 84% 1017.1 hPa 0 mm - 196 W/m² -
1788527087 27.78° C 86% 1017 hPa 0 mm - 38 W/m² -
1788526782 27.22° C 88% 1016.7 hPa 0 mm - 55 W/m² -
1788526479 26.67° C 87% 1017.1 hPa 0 mm - 32 W/m² -
1788526178 26.11° C 93% 1016.9 hPa 0 mm - 48 W/m² -

* Rain latest hour (hover to see other rain measurements)
** Current wind speed in m/s (hover to see current wind gust speed)